Location: Bruderhein
(53.8035°N, 112.9265°W)
Time: 01:38:57
(UTC+00:00)

STRAND 1 - Pass Details

Date: 07 April 2023
Orbit: 767 x 779 km, 98.4° (Epoch: 31 May)

Event Time Altitude Azimuth Distance (km) Brightness Sun altitude
Rises 03:19:29 0° 12° (NNE) 3,254 ? -9.6°
Reaches altitude 10° 03:21:51 10° 7° (N) 2,322 ? -9.9°
Maximum altitude 03:26:44 47° 295° (WNW) 1,016 ? -10.5°
Drops below altitude 10° 03:31:35 10° 222° (SW) 2,307 ? -11.2°
Sets 03:33:57 0° 217° (SW) 3,230 ? -11.5°
